Location: Araquey
(29.9464°N, 81.3373°W)
Time: 12:30:30
(UTC+00:00)

N. Korean satellite - Visible Passes

Search period start: 21 September 2021 00:00
Search period end: 01 October 2021 00:00
Orbit: 448 x 498 km, 97.3° (Epoch: 20 September)

Date Brightness Start Highest point End Pass type
(mag) Time Alt. Az. Time Alt. Az. Time Alt. Az.
21 Sep 8.4 10:11:05 10° NNE 10:14:20 34° E 10:17:38 10° SSE visible
22 Sep 9.8 09:44:33 10° ENE 09:46:32 14° E 09:48:29 10° SE visible
23 Sep 6.6 10:48:32 10° N 10:52:01 57° WNW 10:55:33 10° SSW visible
24 Sep 7.6 10:20:50 10° NNE 10:24:18 50° E 10:27:48 10° S visible
25 Sep 9.4 09:53:49 10° NE 09:56:29 20° E 09:59:10 10° SE visible
27 Sep 6.8 10:30:36 10° NNE 10:34:12 73° ESE 10:37:48 10° S visible
28 Sep 8.9 10:03:17 10° NE 10:06:24 27° E 10:09:32 10° SSE visible
29 Sep 10.1 09:37:22 10° ENE 09:38:30 11° E 09:39:39 10° ESE visible
30 Sep 6.5 10:40:25 10° N 10:44:02 78° WNW 10:47:40 10° SSW visible
